OpenBCM V1.13 (Linux)

Packet Radio Mailbox

DB0FHN

[JN59NK Nuernberg]

 Login: GUEST





  
LU1HVK > KEPLER   09.09.19 07:35l 244 Lines 12026 Bytes #999 (0) @ WW
BID : 31441_LU1HVK
Read: DJ6UX DF7EAV GUEST
Subj: TLE 09 09
Path: DB0FHN<OE2XZR<OE5XBL<F1OYP<F1OYP<F3KT<OK0NBR<OK2PEN<N3HYM<N3DWB<
      LU9HGS<LU1HVK
Sent: 190909/0522Z 31441@LU1HVK.2594.CBA.ARG.SA LinBPQ6.0.18

                         _    _   _ _ _   ___     ___  __
                        | |  | | | / | | | \ \   / / |/ /
                        | |  | | | | | |_| |\ \ / /| ' /
                        | |__| |_| | |  _  | \ V / | . \
                        |_____\___/|_|_| |_|  \_/  |_|\_\

     BBS/NODO - CORDOBA (LEONES-FF87UH) - LU1HVK-4 NODO - LU1HVK-3 APRS

+----------------------------------------------------------------------------+
OSCAR 7
1  7530U 74089B   19251.90042376 -.00000021 +00000-0 +14915-3 0  9999
2  7530 101.7526 218.7443 0011955 186.8542 229.9218 12.53639738050581
OSCAR 11 (UoSAT 2)
1 14781U 84021B   19251.94362523 +.00000029 +00000-0 +97187-5 0  9996
2 14781 097.6078 272.7553 0009729 055.8749 304.3387 14.83104638889951
OSCAR 19 (LUSAT)
1 20442U 90005G   19251.78564933 +.00000000 +00000-0 +16446-4 0  9994
2 20442 098.6529 193.6673 0010586 267.9213 092.0759 14.32932099548076
EYESAT A
1 22825U 93061C   19251.92053084 -.00000007 +00000-0 +15320-4 0  9990
2 22825 098.9094 242.4567 0009383 116.2069 244.0078 14.30065758353430
ITAMSAT
1 22826U 93061D   19251.90304052 +.00000002 +00000-0 +18780-4 0  9990
2 22826 098.9036 242.4200 0009981 106.2286 253.9995 14.30399726353651
RADIO ROSTO
1 23439U 94085A   19251.90950656 -.00000052 +00000-0 -27840-3 0  9998
2 23439 064.8207 343.1684 0145614 097.2860 264.4640 11.27568314017161
JAS 2
1 24278U 96046B   19251.92433865 -.00000049 +00000-0 -14397-4 0  9999
2 24278 098.5496 034.2155 0350811 026.9744 334.9162 13.53093040138677
TECHSAT 1B
1 25397U 98043D   19251.84809330 -.00000016 +00000-0 +12063-4 0  9997
2 25397 098.6924 191.0129 0001945 125.1649 234.9712 14.23670074099343
ISS (ZARYA)
1 25544U 98067A   19252.01509010  .00000372  00000-0  14396-4 0  9994
2 25544  51.6453 305.4718 0008045  20.7172  51.8290 15.50437858188266
PCSAT
1 26931U 01043C   19251.92942914 -.00000032 +00000-0 +19654-4 0  9992
2 26931 067.0514 151.4676 0007455 272.1719 087.8528 14.30551506936664
SAUDISAT 1C
1 27607U 02058C   19251.96037971 -.00000064 +00000-0 +11981-4 0  9992
2 27607 064.5552 158.0697 0077552 240.6393 118.6949 14.75569554899049
CUTE-1
1 27844U 03031E   19251.96714485 +.00000045 +00000-0 +39842-4 0  9993
2 27844 098.6852 258.9529 0010407 147.2922 212.8902 14.22193146839944
CUBESAT XI 4
1 27848U 03031J   19251.91236095 +.00000030 +00000-0 +33450-4 0  9991
2 27848 098.6928 259.4163 0010101 158.5549 201.6053 14.21786471839797
MOZHAYETS 4
1 27939U 03042A   19251.77186008  .00000131  00000-0  32122-4 0  9993
2 27939  98.0519  26.0410 0013389 162.8216 197.3447 14.66801058852578
CUBESAT XI 5
1 28895U 05043F   19251.88461393  .00000088  00000-0  25649-4 0  9990
2 28895  97.9707  31.8518 0018186  92.5265 267.8020 14.63688136739518
CUTE-1.7+APD II
1 32785U 08021C   19251.77485706 +.00000156 +00000-0 +22486-4 0  9996
2 32785 097.5536 247.6327 0012970 358.1016 002.0150 14.88340366615829
DELFI C3
1 32789U 08021G   19251.75237468 +.00001305 +00000-0 +90854-4 0  9999
2 32789 097.4577 298.9163 0011784 197.4137 162.6688 15.07091951619226
SEEDS
1 32791U 08021J   19251.78914882 +.00000134 +00000-0 +18908-4 0  9996
2 32791 097.5303 253.6983 0012490 330.9086 029.1436 14.90863214616266
YUBELEINY
1 32953U 08025A   19251.81858102  .00000020  00000-0  75656-4 0  9993
2 32953  82.4993  93.6926 0019042 312.6852  47.2617 12.43091193512511
PRISM (HITOMI)
1 33493U 09002B   19251.62700193 +.00000134 +00000-0 +17288-4 0  9997
2 33493 098.1205 175.6877 0013548 274.0222 085.9450 14.96725123577392
KKS-1 (KISEKI)
1 33499U 09002H   19251.93619279 +.00000057 +00000-0 +16403-4 0  9993
2 33499 098.3455 093.2491 0008175 310.6610 049.3887 14.75459966570928
SWISSCUBE
1 35932U 09051B   19251.90853694 +.00000116 +00000-0 +37266-4 0  9995
2 35932 098.5960 060.3261 0006429 274.0400 086.0061 14.56306678528706
BEESAT
1 35933U 09051C   19251.90655825 +.00000095 +00000-0 +32417-4 0  9991
2 35933 098.5982 062.1180 0004692 290.9533 069.1162 14.56393046528771
ITUPSAT 1
1 35935U 09051E   19251.46176390 +.00000079 +00000-0 +29393-4 0  9990
2 35935 098.6091 061.8913 0007000 288.2662 071.7772 14.55549824528507
XIWANG-1 (HOPE-1)
1 36122U 09072B   19251.82077092 -.00000058 +00000-0 -40825-4 0  9993
2 36122 100.0756 250.3484 0007831 152.8433 207.3092 13.16350661467682
TISAT 1
1 36799U 10035E   19251.88524058 +.00000133 +00000-0 +19550-4 0  9992
2 36799 098.1663 046.8156 0012510 170.2745 189.8716 14.91148782496817
JUGNU
1 37839U 11058B   19251.95047939 +.00000315 +00000-0 +26082-4 0  9990
2 37839 019.9603 195.9476 0019065 153.5268 245.3766 14.12657873408797
SRMSAT
1 37841U 11058D   19251.43255972 +.00000317 +00000-0 +29352-4 0  9999
2 37841 019.9712 257.5581 0011930 015.6799 136.2760 14.10638231408150
M-CUBED/EXP-1 PRIME
1 37855U 11061F   19251.81002195  .00000123  00000-0  14527-4 0  9990
2 37855 101.7106 189.5577 0173038 193.2961 166.3661 15.05564912429137
HORYU 2
1 38340U 12025D   19251.55011541 +.00000112 +00000-0 +24386-4 0  9999
2 38340 098.3229 292.5695 0010717 218.0110 142.0343 14.75745086382827
STRAND 1
1 39090U 13009E   19251.50042993  .00000014  00000-0  20195-4 0  9990
2 39090  98.4817  96.0603 0010126  50.4144 309.7934 14.35095741342128
SOMP
1 39134U 13015E   19251.91949329 +.00000688 +00000-0 +40580-4 0  9997
2 39134 064.8624 114.0097 0035535 289.6582 070.0712 15.20298979352712
BEESAT 3
1 39135U 13015F   19251.92205206 +.00000532 +00000-0 +36056-4 0  9999
2 39135 064.8688 133.4649 0032215 301.7580 058.0408 15.17583906352336
BEESAT 2
1 39136U 13015G   19251.85849869 +.00000678 +00000-0 +43998-4 0  9995
2 39136 064.8687 137.7264 0023991 304.7195 055.1671 15.17001130352246
CUBEBUG 1
1 39153U 13018D   19251.80802913  .00000121  00000-0  22774-4 0  9993
2 39153  97.9804 349.4814 0015616 294.2963  65.6618 14.80590870343966
ZACUBE
1 39417U 13066B   19251.85515111 +.00000147 +00000-0 +24762-4 0  9992
2 39417 097.5628 260.7401 0060269 123.7876 236.9098 14.81143723313200
TRITON 1
1 39427U 13066M   19251.93824146 +.00000160 +00000-0 +33837-4 0  9991
2 39427 097.6849 224.2708 0112287 262.1342 096.7106 14.67874778310211
GOMX 1
1 39430U 13066Q   19251.83672431  .00000240  00000-0  52442-4 0  9994
2 39430  97.7533 203.0076 0151543 355.7592   4.2322 14.59280639308582
HUMSAT D
1 39433U 13066T   19251.89170094 +.00000242 +00000-0 +28861-4 0  9991
2 39433 097.5468 296.0084 0031409 029.1792 331.1174 14.92242215314155
CUBEBUG 2
1 39440U 13066AA  19251.92250818 +.00000143 +00000-0 +26854-4 0  9996
2 39440 097.6067 245.5231 0080238 176.7428 183.4322 14.75881492310900
FUNCUBE 1
1 39444U 13066AE  19251.94527045 +.00000202 +00000-0 +31017-4 0  9994
2 39444 097.5604 262.8496 0059478 117.1443 243.5853 14.81968543311529
UWE-3
1 39446U 13066AG  19251.92124882 +.00000136 +00000-0 +24621-4 0  9995
2 39446 097.5839 252.6304 0070765 150.6113 209.9108 14.78416385310823
SPROUT
1 39770U 14029E   19251.77296558  .00000505  00000-0  61921-4 0  9992
2 39770  97.8878 354.5502 0008818 168.3760 191.7634 14.87410045287030
UNISAT 6
1 40012U 14033C   19251.88360318 +.00000113 +00000-0 +24205-4 0  9995
2 40012 097.7464 114.9102 0057879 191.3307 168.6604 14.74002890280796
DUCHIFAT 1
1 40021U 14033M   19251.77354403  .00000163  00000-0  22485-4 0  9994
2 40021  97.9226 176.6378 0013803 134.3826 225.8524 14.90673921283771
QB50P1
1 40025U 14033R   19251.55262536 +.00000158 +00000-0 +22759-4 0  9997
2 40025 097.9029 171.0976 0013130 144.4975 215.7118 14.88976269282997
CHUBUSAT 1
1 40300U 14070C   19251.77434678  .00000598  00000-0  28918-4 0  9997
2 40300  97.3209 323.8620 0020745 124.2766 350.6115 15.22158207268504
NUDT-PHONESAT
1 40900U 15049B   19251.77610970  .00001725  00000-0  76290-4 0  9990
2 40900  97.4379 260.3136 0011153 256.8475 189.4517 15.23005478220153
ZDPS 2A
1 40901U 15049C   19251.76199196  .00000735  00000-0  39659-4 0  9990
2 40901  97.4610 256.4062 0011964 280.4654 194.9514 15.17816842219680
ZDPS 2B
1 40902U 15049D   19251.79856542  .00001123  00000-0  59054-4 0  9992
2 40902  97.4560 253.8737 0011754 276.6346 209.9323 15.17664838219666
XW-2A
1 40903U 15049E   19251.81184131  .00001533  00000-0  37843-4 0  9991
2 40903  97.3310 295.0160 0012698 201.8871 278.2770 15.42058419222904
KAITUO 1A
1 40904U 15049F   19251.81636752  .00000687  00000-0  39838-4 0  9998
2 40904  97.4695 252.4287 0013098 286.1308 197.0708 15.15421646219434
OBJECT G
1 40905U 15049G   19251.82249050  .00000231  00000-0  16168-4 0  9997
2 40905  97.4743 249.9012 0014196 280.6421 200.7397 15.14334337219302
XW-2C
1 40906U 15049H   19251.80074280  .00000682  00000-0  39206-4 0  9995
2 40906  97.4704 252.5291 0013155 276.7514 209.0408 15.15741899219437
XW-2D
1 40907U 15049J   19251.76070427  .00000383  00000-0  23410-4 0  9998
2 40907  97.4683 252.1697 0012698 274.0553 171.4889 15.15932176219441
LILACSAT 2
1 40908U 15049K   19251.82779259  .00000133  00000-0  10993-4 0  9990
2 40908  97.4817 250.9805 0014395 281.1399 200.2514 15.13839716219238
XW-2F
1 40910U 15049M   19251.77640020  .00000731  00000-0  39897-4 0  9998
2 40910  97.4643 254.3027 0013088 266.2159 179.3014 15.17399915219460
XW-2B
1 40911U 15049N   19251.79569656  .00000724  00000-0  41291-4 0  9999
2 40911  97.4701 252.8682 0012418 274.4752 163.0728 15.15863712219340
KAITUO 1B
1 40912U 15049P   19251.81761884  .00001052  00000-0  52397-4 0  9994
2 40912  97.4516 258.1129 0013326 243.8967 221.0589 15.19726012219780
TIANWANG 1C (TW-1C)
1 40926U 15051B   19251.82308255  .00011549  00000-0  16044-3 0  9992
2 40926  97.1282 297.9293 0009524  72.4059  33.9237 15.57112186222932
TIANWANG 1B (TW-1B)
1 40927U 15051C   19251.79971454  .00011334  00000-0  16744-3 0  9995
2 40927  97.1315 297.1094 0009618  81.1769   9.3151 15.55444286222771
